Location: Mount Hamilton
(37.3433°N, 121.6347°W)
Time: 00:24:08
(UTC-08:00)

Amateur Radio Satellites - All Passes

Search period start: 21 January 2018 23:54
Search period end: 22 January 2018 23:54
Location: Mount Hamilton, 37.3433°N, 121.6347°W

Satellite Date Start Highest point End Downlink Frequencies (MHz)
Time Altitude Azimuth
POLYITAN 1 22 Jan 00:07:43 00:12:02 80° 103° (ESE) 00:16:19 437.675
AO-91 22 Jan 00:12:50 00:13:30 10° 92° (E) 00:14:10 145.960
NANOSAT C BR1 22 Jan 00:22:12 00:26:28 79° 285° (WNW) 00:30:43 145.865
SPROUT 22 Jan 00:24:14 00:28:07 35° 262° (W) 00:32:02 437.525
BUGSAT 1 22 Jan 00:27:10 00:30:18 20° 95° (E) 00:33:26 437.445
NO-84 22 Jan 00:32:25 00:35:07 36° 230° (SW) 00:37:56 435.350 FM
UKube-1 22 Jan 00:35:43 00:38:25 16° 66° (ENE) 00:41:07 .
VELOX 1 22 Jan 00:36:19 00:40:34 50° 260° (W) 00:44:50 145.980
QB50P2 22 Jan 00:37:49 00:41:49 39° 288° (WNW) 00:45:47 145.880/145.840
Gurwin Techsat 1B 22 Jan 00:42:25 00:45:19 15° 92° (E) 00:48:10 435.225
Oscar 19 22 Jan 00:45:55 00:49:48 21° 94° (E) 00:53:39 437.125/150
DX 1 22 Jan 00:48:43 00:52:44 38° 72° (ENE) 00:56:45 434.975-435.025
YUBILEINY 22 Jan 00:49:03 00:55:40 23° 292° (WNW) 01:02:18 435.215
nSIGHT-1 22 Jan 00:54:05 00:54:52 11° 19° (NNE) 00:55:38 .
O/OREOS (USA 219) 22 Jan 00:56:18 01:00:18 31° 297° (WNW) 01:04:18 437.305
DUCHIFAT 1 22 Jan 01:05:41 01:09:20 29° 290° (WNW) 01:13:00 145.980
MOZHAYETS 4 22 Jan 01:07:41 01:08:39 11° 63° (ENE) 01:09:35
EO-79 22 Jan 01:08:56 01:12:07 21° 292° (WNW) 01:15:17 145.935-145.965
ISS 22 Jan 01:12:05 01:13:11 11° 19° (NNE) 01:14:17 437.550
50 SAT 22 Jan 01:18:15 01:21:19 83° 76° (ENE) 01:24:24 437.505
BEESAT 22 Jan 01:27:36 01:28:24 10° 61° (ENE) 01:29:12 436.000
AO-91 22 Jan 01:45:34 01:50:09 75° 284° (WNW) 01:55:12 145.960
BUGSAT 1 22 Jan 02:01:55 02:05:38 30° 289° (WNW) 02:09:21 437.445
UKube-1 22 Jan 02:10:04 02:14:04 39° 261° (W) 02:18:07 .
Gurwin Techsat 1B 22 Jan 02:20:22 02:25:37 61° 286° (WNW) 02:30:50 435.225
ITUPSAT 1 22 Jan 02:22:20 02:26:45 39° 71° (ENE) 02:31:11 437.325
Oscar 19 22 Jan 02:24:25 02:29:14 41° 289° (WNW) 02:34:00 437.125/150
DX 1 22 Jan 02:26:20 02:29:01 16° 266° (W) 02:31:43 434.975-435.025
nSIGHT-1 22 Jan 02:28:32 02:31:38 50° 37° (NE) 02:34:44 .
MOZHAYETS 4 22 Jan 02:40:30 02:45:06 75° 258° (WSW) 02:49:46
FALCONSAT 3 22 Jan 02:43:05 02:45:52 20° 155° (SSE) 02:48:39 435.103
ISS 22 Jan 02:47:04 02:50:17 51° 37° (NE) 02:53:29 437.550
CUBESAT XI-V 22 Jan 02:47:40 02:51:46 31° 70° (ENE) 02:55:52 437.345
BEESAT 22 Jan 03:00:43 03:05:27 80° 257° (WSW) 03:10:16 436.000
AO-7 22 Jan 03:13:31 03:21:37 51° 102° (ESE) 03:29:38 .
ITAMSAT 1 22 Jan 03:33:16 03:38:12 43° 99° (E) 03:43:09 435.822/435.867
SO-50 22 Jan 03:45:24 03:47:42 14° 108° (ESE) 03:50:02 436.795
KKS-1 22 Jan 04:00:28 04:04:07 26° 69° (ENE) 04:07:47 437.445
ITUPSAT 1 22 Jan 04:01:15 04:04:41 19° 266° (W) 04:08:07 437.325
nSIGHT-1 22 Jan 04:05:53 04:07:28 13° 232° (SW) 04:09:03 .
STARS 22 Jan 04:13:58 04:16:11 14° 65° (ENE) 04:18:24 437.465
FALCONSAT 3 22 Jan 04:20:59 04:24:34 52° 169° (S) 04:28:09 435.103
ISS 22 Jan 04:24:43 04:26:25 14° 232° (SW) 04:28:08 437.550
CUBESAT XI-V 22 Jan 04:25:20 04:29:06 24° 265° (W) 04:32:52 437.345
DOVE 4 22 Jan 04:41:03 04:45:24 57° 101° (E) 04:50:00 437.250
AO-7 22 Jan 05:06:44 05:14:02 35° 299° (WNW) 05:21:19 .
XW-2D 22 Jan 05:10:47 05:12:38 13° 93° (E) 05:14:28 145.860 - 145.880
ITAMSAT 1 22 Jan 05:13:28 05:17:21 22° 295° (WNW) 05:21:14 435.822/435.867
CUTE-I 22 Jan 05:17:48 05:21:04 16° 92° (E) 05:24:19 437.470
SO-50 22 Jan 05:23:19 05:27:40 52° 304° (NW) 05:32:05 436.795
XW-2B 22 Jan 05:27:33 05:30:26 21° 95° (E) 05:33:17 145.730 - 145.750
M-CUBED/EXP-1 PRIME 22 Jan 05:28:11 05:31:25 54° 290° (WNW) 05:34:35 437.505
HO-68 22 Jan 05:36:25 05:40:04 14° 90° (E) 05:43:42 435.675
KKS-1 22 Jan 05:36:55 05:40:34 25° 264° (W) 05:44:13 437.445
STARS 22 Jan 05:47:51 05:52:03 49° 260° (W) 05:56:19 437.465
LilacSat-2 22 Jan 05:57:00 06:00:45 58° 101° (E) 06:04:26 437.200
XW-2C 22 Jan 05:57:19 06:01:01 53° 100° (E) 06:04:39 145.795 - 145.815
FALCONSAT 3 22 Jan 05:59:52 06:03:30 62° 185° (S) 06:07:08 435.103
RS-15 22 Jan 06:18:25 06:28:10 29° 103° (ESE) 06:37:51 29.354- 29.394
STRAND 1 22 Jan 06:19:30 06:24:18 44° 71° (ENE) 06:29:08 437.568
DOVE 4 22 Jan 06:20:46 06:22:39 13° 294° (WNW) 06:24:35 437.250
KAITUO 1B 22 Jan 06:27:45 06:31:27 86° 282° (WNW) 06:35:07 145.475/437.950
XW-2F 22 Jan 06:32:14 06:35:53 53° 284° (WNW) 06:39:29 145.980 - 146.000
NUDT-PHONESAT 22 Jan 06:35:58 06:39:37 70° 284° (WNW) 06:43:13 437.300
XW-2D 22 Jan 06:43:29 06:46:53 33° 287° (WNW) 06:50:16 145.860 - 145.880
SEEDS 22 Jan 06:47:58 06:51:41 31° 97° (E) 06:55:22 437.485
CUTE-I 22 Jan 06:56:13 07:01:25 56° 287° (WNW) 07:06:37 437.470
XW-2B 22 Jan 07:01:34 07:04:29 22° 290° (WNW) 07:07:22 145.730 - 145.750
CUTE 1.7 + AOD 2 22 Jan 07:03:12 07:07:26 87° 109° (ESE) 07:11:36 437.475
FO-29 22 Jan 07:16:26 07:23:19 70° 74° (ENE) 07:29:23 435.910
HO-68 22 Jan 07:21:21 07:28:33 87° 287° (WNW) 07:35:43 435.675
CUBEBUG 2 22 Jan 07:31:03 07:35:49 75° 283° (WNW) 07:40:31 437.445
UWE-3 22 Jan 07:33:11 07:37:50 64° 100° (E) 07:42:23 435.000/436.395/437.385
FALCONSAT 3 22 Jan 07:39:03 07:42:19 30° 200° (SSW) 07:45:34 435.103
UNISAT 6 22 Jan 07:46:46 07:48:15 11° 63° (ENE) 07:49:45 437.425
ZACube-1 22 Jan 07:53:24 07:57:52 53° 100° (E) 08:02:13 437.345
AO-73 22 Jan 07:59:11 08:03:37 53° 99° (E) 08:07:57 145.935
AAUSAT CUBESAT 2 22 Jan 07:59:51 08:03:58 86° 285° (WNW) 08:08:04 437.432
STRAND 1 22 Jan 08:00:04 08:03:39 19° 266° (W) 08:07:15 437.568
XW-2A 22 Jan 08:05:27 08:08:48 79° 282° (WNW) 08:12:07 145.665 - 145.685
SEEDS 22 Jan 08:24:12 08:27:06 19° 292° (WNW) 08:30:00 437.485
RS-15 22 Jan 08:27:10 08:39:31 77° 302° (WNW) 08:51:45 29.354- 29.394
Oscar 11 22 Jan 08:30:37 08:34:57 75° 102° (ESE) 08:39:14 .
BEESAT 3 22 Jan 08:48:43 08:52:35 53° 117° (ESE) 08:56:29 437.485
YUBILEINY 22 Jan 09:02:49 09:10:19 31° 72° (ENE) 09:17:45 435.215
PRISM 22 Jan 09:03:19 09:05:44 16° 67° (ENE) 09:08:11 437.425
TIGRISAT 22 Jan 09:04:08 09:08:32 76° 76° (ENE) 09:13:05 435.000
FO-29 22 Jan 09:04:26 09:08:37 17° 266° (W) 09:12:34 435.910
HO-68 22 Jan 09:11:20 09:15:14 16° 304° (NW) 09:19:10 435.675
UWE-3 22 Jan 09:11:45 09:13:40 12° 296° (WNW) 09:15:33 435.000/436.395/437.385
UNISAT 6 22 Jan 09:19:57 09:24:19 64° 260° (W) 09:28:50 437.425
PCSat 22 Jan 09:21:04 09:26:28 81° 116° (ESE) 09:31:55 145.827
O/OREOS (USA 219) 22 Jan 09:28:46 09:32:45 30° 63° (ENE) 09:36:42 437.305
ZACube-1 22 Jan 09:31:20 09:33:36 14° 295° (WNW) 09:35:53 437.345
AO-73 22 Jan 09:37:06 09:39:19 14° 295° (WNW) 09:41:30 145.935
BEESAT 2 22 Jan 09:40:45 09:44:37 49° 116° (ESE) 09:48:32 435.950
DELFI C3 22 Jan 09:55:59 09:59:51 59° 284° (WNW) 10:03:42 145.870
Max Valier Satellite 22 Jan 10:14:21 10:17:56 50° 285° (WNW) 10:21:28 145.860
JUGNU 22 Jan 10:15:26 10:17:52 13° 175° (S) 10:20:16 437.505
AIST 2D 22 Jan 10:19:42 10:23:07 51° 76° (ENE) 10:26:33 435.315
DUCHIFAT 1 22 Jan 10:21:34 10:23:19 12° 65° (ENE) 10:25:04 145.980
EO-79 22 Jan 10:23:45 10:26:36 18° 67° (ENE) 10:29:28 145.935-145.965
BEESAT 3 22 Jan 10:28:15 10:30:25 14° 313° (NW) 10:32:36 437.485
EO-88 22 Jan 10:29:01 10:32:33 50° 285° (WNW) 10:36:02 145.990 - 145.960
AO-85 22 Jan 10:30:09 10:32:54 18° 109° (ESE) 10:35:45 145.980
PRISM 22 Jan 10:36:56 10:40:41 36° 261° (W) 10:44:27 437.425
RS-15 22 Jan 10:44:37 10:54:23 26° 328° (NNW) 11:04:00 29.354- 29.394
POLYITAN 1 22 Jan 10:57:51 11:01:52 43° 73° (ENE) 11:05:55 437.675
YUBILEINY 22 Jan 10:59:04 11:07:24 53° 270° (W) 11:15:42 435.215
ESTCUBE 1 22 Jan 11:00:15 11:04:11 30° 97° (E) 11:08:06 437.505/2401.250
PCSat 22 Jan 11:07:22 11:10:31 15° 314° (NW) 11:13:41 145.827
O/OREOS (USA 219) 22 Jan 11:08:30 11:11:56 22° 258° (WSW) 11:15:22 437.305
NANOSAT C BR1 22 Jan 11:11:41 11:15:47 55° 75° (ENE) 11:19:56 145.865
BUGSAT 1 22 Jan 11:16:51 11:17:51 11° 64° (ENE) 11:18:51 437.445
BEESAT 2 22 Jan 11:20:11 11:22:35 15° 313° (NW) 11:25:00 435.950
QB50P2 22 Jan 11:27:30 11:31:43 72° 258° (WSW) 11:35:59 145.880/145.840
LO-87 22 Jan 11:42:39 11:46:11 52° 285° (WNW) 11:49:42 145.935 - 145.965
DUCHIFAT 1 22 Jan 11:54:23 11:58:28 51° 260° (W) 12:02:36 145.980
EO-79 22 Jan 11:58:13 12:02:04 34° 263° (W) 12:05:57 145.935-145.965
Oscar 19 22 Jan 12:00:37 12:04:54 27° 67° (ENE) 12:09:11 437.125/150
Gurwin Techsat 1B 22 Jan 12:01:14 12:05:04 21° 65° (ENE) 12:08:55 435.225
JUGNU 22 Jan 12:03:33 12:05:59 13° 185° (S) 12:08:28 437.505
AO-85 22 Jan 12:09:24 12:12:59 32° 308° (NW) 12:16:48 145.980
SPROUT 22 Jan 12:11:16 12:15:21 42° 99° (E) 12:19:25 437.525
SO-50 22 Jan 12:18:18 12:19:31 11° 41° (NE) 12:20:44 436.795
AO-7 22 Jan 12:24:31 12:27:04 12° 47° (NE) 12:29:37 .
SRMSAT 22 Jan 12:28:10 12:29:48 11° 170° (S) 12:31:26 437.500
VELOX 1 22 Jan 12:28:10 12:32:10 33° 98° (E) 12:36:08 145.980
POLYITAN 1 22 Jan 12:35:39 12:37:49 14° 268° (W) 12:40:01 437.675
ESTCUBE 1 22 Jan 12:37:19 12:40:48 23° 292° (WNW) 12:44:15 437.505/2401.250
AO-91 22 Jan 12:41:46 12:45:05 63° 75° (ENE) 12:48:31 145.960
BUGSAT 1 22 Jan 12:48:39 12:52:38 57° 259° (W) 12:56:43 437.445
NANOSAT C BR1 22 Jan 12:50:58 12:51:47 10° 269° (W) 12:52:37 145.865
RS-15 22 Jan 13:06:15 13:13:07 16° 4° (N) 13:19:50 29.354- 29.394
Oscar 19 22 Jan 13:39:20 13:44:01 34° 263° (W) 13:48:44 437.125/150
Gurwin Techsat 1B 22 Jan 13:39:33 13:44:38 47° 261° (W) 13:49:45 435.225
SPROUT 22 Jan 13:48:19 13:50:51 16° 294° (WNW) 13:53:23 437.525
SO-50 22 Jan 13:56:01 14:00:45 75° 60° (ENE) 14:05:32 436.795
UKube-1 22 Jan 13:58:42 14:02:41 36° 99° (E) 14:06:39 .
VELOX 1 22 Jan 14:05:10 14:08:21 20° 293° (WNW) 14:11:32 145.980
50 SAT 22 Jan 14:05:51 14:08:58 84° 107° (ESE) 14:12:04 437.505
AO-7 22 Jan 14:09:56 14:18:02 58° 66° (ENE) 14:26:11 .
DX 1 22 Jan 14:14:20 14:18:42 83° 282° (WNW) 14:23:02 434.975-435.025
SRMSAT 22 Jan 14:15:08 14:18:06 14° 180° (S) 14:21:04 437.500
ITUPSAT 1 22 Jan 14:27:05 14:28:34 11° 91° (E) 14:30:04 437.325
MOZHAYETS 4 22 Jan 14:37:52 14:41:54 29° 96° (E) 14:45:53
M-CUBED/EXP-1 PRIME 22 Jan 14:40:41 14:41:00 10° 61° (ENE) 14:41:19 437.505
ITAMSAT 1 22 Jan 14:49:07 14:54:07 54° 73° (ENE) 14:59:10 435.822/435.867
BEESAT 22 Jan 15:03:07 15:07:19 30° 97° (E) 15:11:28 436.000
RS-15 22 Jan 15:20:40 15:31:01 33° 39° (NE) 15:40:50 29.354- 29.394
UKube-1 22 Jan 15:35:31 15:38:24 18° 293° (WNW) 15:41:16 .
SO-50 22 Jan 15:39:25 15:40:35 11° 253° (WSW) 15:41:44 436.795
NO-84 22 Jan 15:44:46 15:47:54 46° 132° (SE) 15:50:49 435.350 FM
DOVE 4 22 Jan 15:44:48 15:48:50 42° 74° (ENE) 15:52:47 437.250
ITUPSAT 1 22 Jan 16:02:00 16:06:47 66° 286° (WNW) 16:11:33 437.325
AO-7 22 Jan 16:04:08 16:11:06 29° 263° (W) 16:18:08 .
SRMSAT 22 Jan 16:04:56 16:06:25 11° 190° (S) 16:07:54 437.500
M-CUBED/EXP-1 PRIME 22 Jan 16:10:33 16:14:55 71° 253° (WSW) 16:18:59 437.505
MOZHAYETS 4 22 Jan 16:15:10 16:18:53 24° 291° (WNW) 16:22:35
CUBESAT XI-V 22 Jan 16:22:39 16:27:16 83° 286° (WNW) 16:31:51 437.345
ITAMSAT 1 22 Jan 16:30:46 16:33:53 16° 267° (W) 16:37:00 435.822/435.867
XW-2C 22 Jan 16:36:57 16:39:44 20° 70° (ENE) 16:42:32 145.795 - 145.815
LilacSat-2 22 Jan 16:37:07 16:40:06 22° 70° (ENE) 16:43:05 437.200
CUTE-I 22 Jan 16:37:25 16:41:29 23° 66° (ENE) 16:45:34 437.470
BEESAT 22 Jan 16:40:58 16:44:56 26° 292° (WNW) 16:48:52 436.000
KAITUO 1B 22 Jan 17:05:23 17:08:40 29° 72° (ENE) 17:11:58 145.475/437.950
BEESAT 3 22 Jan 17:07:50 17:10:28 17° 48° (NE) 17:13:05 437.485
XW-2F 22 Jan 17:10:17 17:13:56 47° 75° (ENE) 17:17:36 145.980 - 146.000
NUDT-PHONESAT 22 Jan 17:12:27 17:15:50 34° 73° (ENE) 17:19:14 437.300
XW-2D 22 Jan 17:21:36 17:25:26 78° 77° (ENE) 17:29:15 145.860 - 145.880
NO-84 22 Jan 17:23:25 17:25:12 14° 326° (NW) 17:26:55 435.350 FM
DOVE 4 22 Jan 17:24:38 17:26:42 13° 267° (W) 17:28:44 437.250
KKS-1 22 Jan 17:28:40 17:33:08 69° 103° (ESE) 17:37:34 437.445
RS-15 22 Jan 17:33:03 17:44:40 78° 244° (WSW) 17:55:39 29.354- 29.394
SEEDS 22 Jan 17:38:11 17:40:59 18° 68° (ENE) 17:43:47 437.485
STARS 22 Jan 17:39:03 17:43:02 32° 98° (E) 17:47:01 437.465
XW-2B 22 Jan 17:39:20 17:43:08 64° 259° (W) 17:46:56 145.730 - 145.750
HO-68 22 Jan 17:47:17 17:54:14 57° 70° (ENE) 18:01:12 435.675
CUTE 1.7 + AOD 2 22 Jan 17:53:22 17:57:25 45° 74° (ENE) 18:01:29 437.475
BEESAT 2 22 Jan 18:00:47 18:03:28 17° 48° (NE) 18:06:08 435.950
XW-2C 22 Jan 18:10:34 18:13:44 24° 264° (W) 18:16:54 145.795 - 145.815
PCSat 22 Jan 18:11:07 18:16:15 41° 57° (ENE) 18:21:20 145.827
LilacSat-2 22 Jan 18:11:10 18:14:14 22° 264° (W) 18:17:19 437.200
CUTE-I 22 Jan 18:16:15 18:21:14 41° 261° (W) 18:26:15 437.470
CUBEBUG 2 22 Jan 18:26:32 18:30:53 69° 75° (ENE) 18:35:24 437.445
UWE-3 22 Jan 18:27:46 18:31:51 38° 72° (ENE) 18:36:04 435.000/436.395/437.385
STRAND 1 22 Jan 18:32:56 18:36:22 18° 93° (E) 18:39:47 437.568
XW-2A 22 Jan 18:34:33 18:37:13 21° 71° (ENE) 18:39:53 145.665 - 145.685
KAITUO 1B 22 Jan 18:40:22 18:42:39 15° 266° (W) 18:44:56 145.475/437.950
BEESAT 3 22 Jan 18:44:31 18:48:08 37° 245° (WSW) 18:51:41 437.485
ZACube-1 22 Jan 18:46:51 18:50:48 32° 71° (ENE) 18:54:48 437.345
AAUSAT CUBESAT 2 22 Jan 18:47:26 18:51:21 44° 74° (ENE) 18:55:17 437.432
NUDT-PHONESAT 22 Jan 18:47:54 18:49:44 13° 267° (W) 18:51:36 437.300
AO-73 22 Jan 18:52:17 18:56:13 32° 71° (ENE) 19:00:14 145.935
AO-85 22 Jan 19:01:59 19:05:01 16° 45° (NE) 19:08:11 145.980
nSIGHT-1 22 Jan 19:03:35 19:06:36 43° 135° (SE) 19:09:37 .
KKS-1 22 Jan 19:08:03 19:09:04 11° 297° (WNW) 19:10:04 437.445
SEEDS 22 Jan 19:12:30 19:16:22 34° 263° (W) 19:20:13 437.485
STARS 22 Jan 19:15:51 19:19:07 21° 293° (WNW) 19:22:24 437.465
Oscar 11 22 Jan 19:23:02 19:27:07 42° 73° (ENE) 19:31:14 .
ISS 22 Jan 19:25:20 19:28:29 48° 136° (SE) 19:31:38 437.550
CUTE 1.7 + AOD 2 22 Jan 19:31:20 19:33:27 13° 268° (W) 19:35:32 437.475
HO-68 22 Jan 19:36:40 19:42:16 25° 265° (W) 19:47:54 435.675
BEESAT 2 22 Jan 19:37:36 19:41:21 40° 245° (WSW) 19:45:03 435.950
RS-15 22 Jan 19:49:22 19:54:53 15° 264° (W) 20:00:19 29.354- 29.394
PCSat 22 Jan 19:55:03 19:59:22 25° 253° (WSW) 20:03:41 145.827
UWE-3 22 Jan 20:05:28 20:08:26 18° 268° (W) 20:11:28 435.000/436.395/437.385
XW-2A 22 Jan 20:07:30 20:09:49 17° 265° (W) 20:12:08 145.665 - 145.685
STRAND 1 22 Jan 20:10:49 20:15:45 48° 288° (WNW) 20:20:41 437.568
FO-29 22 Jan 20:12:51 20:18:01 70° 102° (ESE) 20:23:21 435.910
ZACube-1 22 Jan 20:23:41 20:27:04 21° 266° (W) 20:30:32 437.345
AAUSAT CUBESAT 2 22 Jan 20:25:09 20:26:59 13° 268° (W) 20:28:49 437.432
AO-73 22 Jan 20:29:03 20:32:27 21° 266° (W) 20:35:54 145.935
DELFI C3 22 Jan 20:38:34 20:42:21 52° 75° (ENE) 20:46:10 145.870
nSIGHT-1 22 Jan 20:40:28 20:42:53 20° 331° (NNW) 20:45:19 .
AO-85 22 Jan 20:40:54 20:45:57 78° 241° (WSW) 20:51:15 145.980
Max Valier Satellite 22 Jan 20:50:24 20:53:58 46° 75° (ENE) 20:57:34 145.860
TIGRISAT 22 Jan 20:58:22 21:01:48 20° 94° (E) 21:05:11 435.000
Oscar 11 22 Jan 21:00:58 21:03:26 15° 268° (W) 21:05:54 .
ISS 22 Jan 21:02:40 21:05:08 20° 332° (NNW) 21:07:36 437.550
EO-88 22 Jan 21:03:56 21:07:24 42° 74° (ENE) 21:10:53 145.990 - 145.960
UNISAT 6 22 Jan 21:13:39 21:17:52 32° 96° (E) 21:22:02 437.425
ESTCUBE 1 22 Jan 21:57:58 22:01:28 22° 68° (ENE) 22:04:58 437.505/2401.250
FO-29 22 Jan 22:00:25 22:02:32 12° 298° (WNW) 22:04:40 435.910
YUBILEINY 22 Jan 22:01:02 22:08:55 38° 86° (E) 22:16:47 435.215
LO-87 22 Jan 22:16:04 22:19:23 38° 74° (ENE) 22:22:44 145.935 - 145.965
PRISM 22 Jan 22:19:48 22:23:26 31° 98° (E) 22:27:05 437.425
NO-84 22 Jan 22:20:02 22:21:01 11° 32° (NNE) 22:22:00 435.350 FM
TIGRISAT 22 Jan 22:34:13 22:38:32 37° 289° (WNW) 22:42:50 435.000
UNISAT 6 22 Jan 22:50:38 22:54:22 24° 292° (WNW) 22:58:04 437.425
NANOSAT C BR1 22 Jan 23:00:51 23:01:24 10° 91° (E) 23:01:57 145.865
SPROUT 22 Jan 23:02:40 23:06:06 24° 69° (ENE) 23:09:33 437.525
QB50P2 22 Jan 23:14:55 23:18:12 21° 95° (E) 23:21:27 145.880/145.840
AIST 2D 22 Jan 23:19:08 23:22:37 88° 96° (E) 23:26:04 435.315
VELOX 1 22 Jan 23:23:36 23:27:05 23° 69° (ENE) 23:30:34 145.980
ESTCUBE 1 22 Jan 23:34:04 23:38:04 31° 263° (W) 23:42:04 437.505/2401.250
O/OREOS (USA 219) 22 Jan 23:38:35 23:42:57 52° 107° (ESE) 23:47:19 437.305
DUCHIFAT 1 22 Jan 23:40:25 23:44:03 27° 96° (E) 23:47:40 145.980
EO-79 22 Jan 23:44:20 23:48:24 41° 99° (E) 23:52:25 145.935-145.965
LO-87 22 Jan 23:52:20 23:52:56 10° 268° (W) 23:53:32 145.935 - 145.965
